Regional Weather Roundup
Issued by NWS

Home | Current Version | Previous Version | Text Only | Print | Product List | Glossary On
Versions: 1 2 3 4 5 6 7 8 9 10 11 12 13 14 15 16 17 18 19 20 21 22 23 24 25 26 27 28 29 30 31 32 33 34 35 36 37 38 39 40 41 42 43 44 45 46 47 48 49 50
739
ASUS44 KLIX 261010
RWRLA
LOUISIANA WEATHER ROUNDUP
NATIONAL WEATHER SERVICE NEW ORLEANS LA
400 AM CST THU FEB 26 2015

NOTE: "FAIR" INDICATES FEW OR NO CLOUDS BELOW 12,000 FEET WITH NO
      SIGNIFICANT WEATHER AND/OR OBSTRUCTIONS TO VISIBILITY.
      SKY/WX - SKY CONDITION AND SIGNIFICANT WEATHER.
      TMP - AIR TEMPERATURE.    DP   - DEWPOINT TEMPERATURE.
      RH  - RELATIVE HUMIDITY.  PRES - PRESSURE.
      HX  - HEAT INDEX.         WCI  - WIND CHILL INDEX.

*  THESE STATIONS ARE NOT NWS OR FAA STATIONS AND ARE NOT UNDER
   NWS QUALITY CONTROL.

LAZ040-048-061>063-065-066-069-261100-
SOUTHEAST LOUISIANA

CITY           SKY/WX    TMP DP  RH WIND       PRES   REMARKS
N.O. AUDUBON     N/A     41  38  91 MISG        N/A
N.O. INTL ARPT CLOUDY    39  34  82 NW14      29.90S WCI  31
N.O. LAKEFRONT CLOUDY    42  35  76 N21       29.91R
SLIDELL        CLOUDY    37  33  85 N8G18     29.90S WCI  31
BATON ROUGE    CLOUDY    35  31  85 NW6       29.94S WCI  30
BOOTHVILLE     CLOUDY    42  39  89 N18       29.86S
BELLE CHASSE   CLOUDY    41  34  76 N9G21     29.89R
BOGALUSA*        N/A     38  34  85 N5        29.94R WCI  35
GALLIANO*      CLOUDY    42  38  86 NW14      29.89S
NEW ROADS*     CLOUDY    35  32  89 N9        29.95S WCI  28
GONZALES*      CLOUDY    37  34  90 N9        29.93S WCI  30
HAMMOND*       CLOUDY    37  34  87 N6        29.94S WCI  33
HOUMA*         CLOUDY    38  35  89 N13       29.90S WCI  30
PORT FOURCHON* NOT AVBL

$$

LAZ041-044-053-054-261100-
SOUTHWEST LOUISIANA

CITY           SKY/WX    TMP DP  RH WIND       PRES   REMARKS
LAKE CHARLES   CLOUDY    37  32  82 NE10      29.95R WCI  30
LAFAYETTE      CLOUDY    36  31  82 N13       29.95R WCI  27
PATTERSON      CLOUDY    37  34  87 N13       29.92S WCI  29
SALT POINT       N/A     38  34  85 N9        29.91R WCI  31
NEW IBERIA     CLOUDY    37  32  82 N13       29.94S WCI  29
CHENAULT AIRPK NOT AVBL

$$

LAZ027-028-261100-
CENTRAL LOUISIANA

CITY           SKY/WX    TMP DP  RH WIND       PRES   REMARKS
FORT POLK      CLOUDY    34  33  93 NE7       29.93S WCI  28
ALEXANDRIA INT CLOUDY    35  32  88 N3        29.95S
ALEXANDRIA     CLOUDY    36  32  85 VRB5      29.95F WCI  32

$$

LAZ001-002-261100-
NORTHWEST LOUISIANA

CITY           SKY/WX    TMP DP  RH WIND       PRES   REMARKS
SHREVEPORT     CLOUDY    33  31  92 CALM      29.96R
BARKSDALE AFB  MOCLDY    30  29  99 N2        29.97R
DTN SHREVEPORT CLEAR     30  27  88 CALM      29.97R

$$

LAZ014-016-261100-
NORTHEAST LOUISIANA

CITY           SKY/WX    TMP DP  RH WIND       PRES   REMARKS
MONROE         CLOUDY    33  32  96 N3        29.97R
TALLULAH       CLOUDY    34  31  88 CALM      29.95S

$$




USA.gov is the U.S. government's official web portal to all federal, state and local government web resources and services.